OPS 7329

operational
NORAD ID: 4510 Int'l Des: 1970-069 Owner: SAMSO Country: US
HEOELLIPTICAL

About OPS 7329

Description loading...

Live Position

Loading 3D Globe...

Upcoming Passes

Altitude History

Altitude vs Time

uPlot chart will show altitude changes over time

Two-Line Element Set

1 04510U 70069A 26062.18725145 -.00000298 00000-0 00000-0 0 9991
2 04510 10.5404 160.4270 1015283 105.3617 252.8636 1.00177417 23723
Epoch: Mar 3, 2026 • Age: 24 hours

Current Status

Altitude 40017.4 km
Velocity 2.78 km/s
Sub-Earth Point -9.64°S, 71.54°W
Type other

Large Constellations

Loading constellations...